Regional Weather Roundup
Issued by NWS Cleveland, OH

Home | Current Version | Previous Version | Graphics & Text | Print | Product List | Glossary On
Versions: 1 2 3 4 5 6 7 8 9 10 11 12 13 14 15 16 17 18 19 20 21 22 23 24 25 26 27 28 29 30 31 32 33 34 35 36 37 38 39 40 41 42 43 44 45 46 47 48 49 50
000
ASUS41 KCLE 140100
RWRCLE
OHIO REGIONAL WEATHER ROUNDUP
NATIONAL WEATHER SERVICE WILMINGTON, OH
800 PM EST SAT FEB 13 2016

NOTE: "FAIR" INDICATES FEW OR NO CLOUDS BELOW 12,000 FEET WITH NO
SIGNIFICANT WEATHER AND/OR OBSTRUCTIONS TO VISIBILITY.

OHZ001>008-015>018-024>027-034-035-043-044-140200-
   NORTHWEST OHIO

CITY           SKY/WX    TMP DP  RH WIND       PRES   REMARKS
DEFIANCE       FAIR      14   3  61 W7        30.49R WCI   4
FINDLAY        CLOUDY    14   7  73 W9        30.46S WCI   2
TOLEDO EXPRESS LGT SNOW  14   8  77 W8        30.47R WCI   3
TOLEDO EXEC    CLOUDY    15   8  73 W5        30.47S WCI   8
LIMA           FAIR      12   3  67 W10       30.46S WCI  -1
$$

OHZ009>014-019>023-028>033-038-089-140200-
   NORTHEAST OHIO

CITY           SKY/WX    TMP DP  RH WIND       PRES   REMARKS
CLE-HOPKINS    MOCLDY     9   2  73 W5        30.47S WCI   1
CLE-LAKEFRONT  FAIR      14   2  58 NW12      30.45S WCI   0
CUY CO. ARPT   CLOUDY    14   1  57 NW16      30.43S WCI  -2
LORAIN-ELYRIA  FLURRIES   9   6  88 CALM      30.45S
ASHTABULA      CLOUDY     9  -4  55 NW10      30.41S WCI  -5
AKRON-CANTON   LGT SNOW   6  -1  73 NW5       30.41S WCI  -3
WOOSTER        NOT AVBL
MANSFIELD      LGT SNOW  10   4  76 W5        30.40F WCI   2
YOUNGSTOWN     LGT SNOW   7   4  87 W6        30.39S VSB 1   WCI  -3
$$

OHZ042-051>053-060>062-070>072-077>081-140200-
  SOUTHWEST OHIO

CITY           SKY/WX    TMP DP  RH WIND       PRES   REMARKS
CINC-COVINGTON FAIR      14   1  56 CALM      30.50F
CINC-LUNKEN    FAIR      15   2  56 CALM      30.55F
HAMILTON       FAIR      10   4  76 CALM      30.53S
DAYTON         NOT AVBL
WRIGHT-PAT AFB CLEAR     12  -1  56 W2        30.49S
DAYTON GENERAL FAIR       9  -2  61 CALM      30.48S
WILMINGTON     FAIR       6  -2  69 CALM      30.48S
$$

OHZ036-037-039>041-045>050-054>059-063>069-073>076-082>088-140200-
  CENTRAL AND SOUTHEAST OHIO

CITY           SKY/WX    TMP DP  RH WIND       PRES   REMARKS
COLUMBUS       FAIR      11   0  61 W7        30.48S WCI   0
OSU AIRPORT    FAIR      10   2  69 W8        30.47S WCI  -2
BOLTON FIELD   NOT AVBL
RICKENBACK AFB NOT AVBL
NEWARK         CLOUDY    12   2  64 W7        30.46F WCI   1
MARION         CLOUDY    12   5  73 W8        30.45S WCI   0
LANCASTER      FAIR      10   2  69 W5        30.49R WCI   2
ZANESVILLE     CLOUDY    14   2  58 W6        30.46F WCI   5
NEW PHILLY     CLOUDY     9  32 100 CALM      30.46S
$$



USA.gov is the U.S. government's official web portal to all federal, state and local government web resources and services.